Time,TemperatureF,DewpointF,PressureIn,WindDirection,WindDirectionDegrees,WindSpeedMPH,WindSpeedGustMPH,Humidity,HourlyPrecipIn,Conditions,Clouds,dailyrainin,SolarRadiationWatts/m^2,SoftwareType,DateUTC
2013-01-20 00:22:00,5.0,2.0,-100.00,WNW,303,2.0,6.0,85,0.00,,,0.02,0.000000,,2013-01-20 07:22:00,
2013-01-20 00:32:00,5.0,2.0,-100.00,WNW,303,2.0,6.0,85,0.00,,,0.02,0.000000,,2013-01-20 07:32:00,
2013-01-20 00:42:00,5.0,2.0,-100.00,WNW,303,2.0,6.0,85,0.00,,,0.02,0.000000,,2013-01-20 07:42:00,
2013-01-20 00:52:00,5.0,2.0,-100.00,WNW,303,2.0,6.0,85,0.00,,,0.02,0.000000,,2013-01-20 07:52:00,
2013-01-20 01:22:00,5.0,1.0,-100.00,NNW,334,2.0,7.0,83,0.00,,,-99.99,0.000000,,2013-01-20 08:22:00,
2013-01-20 01:32:00,5.0,1.0,-100.00,NNW,334,2.0,7.0,83,0.00,,,-99.99,0.000000,,2013-01-20 08:32:00,
2013-01-20 01:42:00,5.0,1.0,-100.00,NNW,334,2.0,7.0,83,0.00,,,-99.99,0.000000,,2013-01-20 08:42:00,
2013-01-20 01:52:00,5.0,1.0,-100.00,NNW,334,2.0,7.0,83,0.00,,,-99.99,0.000000,,2013-01-20 08:52:00,
2013-01-20 02:22:00,1.0,-2.0,-100.00,NW,319,2.0,7.0,85,0.00,,,0.02,0.000000,,2013-01-20 09:22:00,
2013-01-20 02:33:00,1.0,-2.0,-100.00,NW,319,2.0,7.0,85,0.00,,,0.02,0.000000,,2013-01-20 09:33:00,
2013-01-20 03:22:00,3.0,-1.0,-100.00,North,358,2.0,7.0,84,0.00,,,0.02,0.000000,,2013-01-20 10:22:00,
2013-01-20 03:32:00,3.0,-1.0,-100.00,North,358,2.0,7.0,84,0.00,,,0.02,0.000000,,2013-01-20 10:32:00,
2013-01-20 03:42:00,3.0,-1.0,-100.00,North,358,2.0,7.0,84,0.00,,,0.02,0.000000,,2013-01-20 10:42:00,
2013-01-20 03:52:00,3.0,-1.0,-100.00,North,358,2.0,7.0,84,0.00,,,0.02,0.000000,,2013-01-20 10:52:00,
2013-01-20 04:22:00,6.0,3.0,-100.00,North,350,4.0,6.0,86,0.00,,,0.02,0.000000,,2013-01-20 11:22:00,
2013-01-20 04:32:00,6.0,3.0,-100.00,North,350,4.0,6.0,86,0.00,,,0.02,0.000000,,2013-01-20 11:32:00,
2013-01-20 04:42:00,6.0,3.0,-100.00,North,350,4.0,6.0,86,0.00,,,0.02,0.000000,,2013-01-20 11:42:00,
2013-01-20 04:53:00,6.0,3.0,-100.00,North,350,4.0,6.0,86,0.00,,,0.02,0.000000,,2013-01-20 11:53:00,
2013-01-20 05:22:00,-1.0,-5.0,-100.00,North,351,3.0,9.0,82,0.00,,,-99.99,0.000000,,2013-01-20 12:22:00,
2013-01-20 05:33:00,-1.0,-5.0,-100.00,North,351,3.0,9.0,82,0.00,,,-99.99,0.000000,,2013-01-20 12:33:00,
2013-01-20 05:43:00,-1.0,-5.0,-100.00,North,351,3.0,9.0,82,0.00,,,-99.99,0.000000,,2013-01-20 12:43:00,
2013-01-20 05:52:00,-1.0,-5.0,-100.00,North,351,3.0,9.0,82,0.00,,,-99.99,0.000000,,2013-01-20 12:52:00,
2013-01-20 06:23:00,3.0,-1.0,-100.00,WSW,249,2.0,5.0,84,0.00,,,0.02,0.000000,,2013-01-20 13:23:00,
2013-01-20 06:33:00,3.0,-1.0,-100.00,WSW,249,2.0,5.0,84,0.00,,,0.02,0.000000,,2013-01-20 13:33:00,
2013-01-20 06:42:00,3.0,-1.0,-100.00,WSW,249,2.0,5.0,84,0.00,,,0.02,0.000000,,2013-01-20 13:42:00,
2013-01-20 06:52:00,3.0,-1.0,-100.00,WSW,249,2.0,5.0,84,0.00,,,0.02,0.000000,,2013-01-20 13:52:00,
2013-01-20 07:22:00,2.0,-2.0,-100.00,West,271,3.0,6.0,83,0.00,,,0.02,0.000000,,2013-01-20 14:22:00,
2013-01-20 07:32:00,2.0,-2.0,-100.00,West,271,3.0,6.0,83,0.00,,,0.02,0.000000,,2013-01-20 14:32:00,
2013-01-20 07:42:00,2.0,-2.0,-100.00,West,271,3.0,6.0,83,0.00,,,0.02,0.000000,,2013-01-20 14:42:00,
2013-01-20 07:52:00,2.0,-2.0,-100.00,West,271,3.0,6.0,83,0.00,,,0.02,0.000000,,2013-01-20 14:52:00,
2013-01-20 08:22:00,-1.0,-6.0,-100.00,NW,305,1.0,5.0,80,0.00,,,0.02,1.000000,,2013-01-20 15:22:00,
2013-01-20 08:33:00,-1.0,-6.0,-100.00,NW,305,1.0,5.0,80,0.00,,,0.02,1.000000,,2013-01-20 15:33:00,
2013-01-20 08:42:00,-1.0,-6.0,-100.00,NW,305,1.0,5.0,80,0.00,,,0.02,1.000000,,2013-01-20 15:42:00,
2013-01-20 08:52:00,-1.0,-6.0,-100.00,NW,305,1.0,5.0,80,0.00,,,0.02,1.000000,,2013-01-20 15:52:00,
2013-01-20 09:22:00,3.0,-2.0,-100.00,NNE,26,5.0,9.0,79,0.00,,,0.02,44.000000,,2013-01-20 16:22:00,
2013-01-20 09:33:00,3.0,-2.0,-100.00,NNE,26,5.0,9.0,79,0.00,,,0.02,44.000000,,2013-01-20 16:33:00,
2013-01-20 09:42:00,3.0,-2.0,-100.00,NNE,26,5.0,9.0,79,0.00,,,0.02,44.000000,,2013-01-20 16:42:00,
2013-01-20 09:52:00,3.0,-2.0,-100.00,NNE,26,5.0,9.0,79,0.00,,,0.02,44.000000,,2013-01-20 16:52:00,
2013-01-20 10:22:00,5.0,-1.0,-100.00,NE,43,5.0,8.0,74,0.00,,,0.02,161.000000,,2013-01-20 17:22:00,
2013-01-20 10:32:00,5.0,-1.0,-100.00,NE,43,5.0,8.0,74,0.00,,,0.02,161.000000,,2013-01-20 17:32:00,
2013-01-20 10:42:00,5.0,-1.0,-100.00,NE,43,5.0,8.0,74,0.00,,,0.02,161.000000,,2013-01-20 17:42:00,
2013-01-20 10:52:00,5.0,-1.0,-100.00,NE,43,5.0,8.0,74,0.00,,,0.02,161.000000,,2013-01-20 17:52:00,
2013-01-20 11:23:00,10.0,2.0,-100.00,NE,37,6.0,9.0,69,0.00,,,-99.99,293.000000,,2013-01-20 18:23:00,
2013-01-20 11:33:00,10.0,2.0,-100.00,NE,37,6.0,9.0,69,0.00,,,-99.99,293.000000,,2013-01-20 18:33:00,
2013-01-20 11:42:00,10.0,2.0,-100.00,NE,37,6.0,9.0,69,0.00,,,-99.99,293.000000,,2013-01-20 18:42:00,
2013-01-20 11:52:00,10.0,2.0,-100.00,NE,37,6.0,9.0,69,0.00,,,-99.99,293.000000,,2013-01-20 18:52:00,
2013-01-20 12:12:00,16.0,6.0,-100.00,NNE,15,3.0,8.0,65,0.00,,,0.02,400.000000,,2013-01-20 19:12:00,
2013-01-20 12:22:00,16.0,6.0,-100.00,NNE,15,3.0,8.0,65,0.00,,,0.02,400.000000,,2013-01-20 19:22:00,
2013-01-20 12:33:00,16.0,6.0,-100.00,NNE,15,3.0,8.0,65,0.00,,,0.02,400.000000,,2013-01-20 19:33:00,
2013-01-20 12:42:00,16.0,6.0,-100.00,NNE,15,3.0,8.0,65,0.00,,,0.02,400.000000,,2013-01-20 19:42:00,
2013-01-20 12:52:00,16.0,6.0,-100.00,NNE,15,3.0,8.0,65,0.00,,,0.02,400.000000,,2013-01-20 19:52:00,
2013-01-20 13:22:00,21.0,8.0,-100.00,East,90,2.0,6.0,57,0.00,,,0.02,466.000000,,2013-01-20 20:22:00,
2013-01-20 13:33:00,21.0,8.0,-100.00,East,90,2.0,6.0,57,0.00,,,0.02,466.000000,,2013-01-20 20:33:00,
2013-01-20 13:42:00,21.0,8.0,-100.00,East,90,2.0,6.0,57,0.00,,,0.02,466.000000,,2013-01-20 20:42:00,
2013-01-20 13:52:00,21.0,8.0,-100.00,East,90,2.0,6.0,57,0.00,,,0.02,466.000000,,2013-01-20 20:52:00,
2013-01-20 14:22:00,22.0,9.0,-100.00,South,176,3.0,6.0,56,0.01,,,0.02,444.000000,,2013-01-20 21:22:00,
2013-01-20 14:33:00,22.0,9.0,-100.00,South,176,3.0,6.0,56,0.01,,,0.02,444.000000,,2013-01-20 21:33:00,
2013-01-20 14:43:00,22.0,9.0,-100.00,South,176,3.0,6.0,56,0.01,,,0.02,444.000000,,2013-01-20 21:43:00,
2013-01-20 14:52:00,22.0,9.0,-100.00,South,176,3.0,6.0,56,0.01,,,0.02,444.000000,,2013-01-20 21:52:00,
2013-01-20 15:22:00,24.0,9.0,-100.00,SSW,197,3.0,5.0,51,0.01,,,0.02,368.000000,,2013-01-20 22:22:00,
2013-01-20 15:33:00,24.0,9.0,-100.00,SSW,197,3.0,5.0,51,0.01,,,0.02,368.000000,,2013-01-20 22:33:00,
2013-01-20 15:42:00,24.0,9.0,-100.00,SSW,197,3.0,5.0,51,0.01,,,0.02,368.000000,,2013-01-20 22:42:00,
2013-01-20 15:52:00,24.0,9.0,-100.00,SSW,197,3.0,5.0,51,0.01,,,0.02,368.000000,,2013-01-20 22:52:00,
2013-01-20 16:23:00,23.0,10.0,-100.00,SSW,212,2.0,5.0,56,0.01,,,0.03,253.000000,,2013-01-20 23:23:00,
2013-01-20 16:33:00,23.0,10.0,-100.00,SSW,212,2.0,5.0,56,0.01,,,0.03,253.000000,,2013-01-20 23:33:00,
2013-01-20 16:42:00,23.0,10.0,-100.00,SSW,212,2.0,5.0,56,0.01,,,0.03,253.000000,,2013-01-20 23:42:00,
2013-01-20 16:52:00,23.0,10.0,-100.00,SSW,212,2.0,5.0,56,0.01,,,0.03,253.000000,,2013-01-20 23:52:00,
2013-01-20 17:22:00,15.0,9.0,-100.00,North,357,2.0,7.0,75,0.00,,,0.03,88.000000,,2013-01-21 00:22:00,
2013-01-20 18:22:00,12.0,7.0,-100.00,WNW,287,3.0,8.0,80,0.00,,,0.03,4.000000,,2013-01-21 01:22:00,
2013-01-20 19:23:00,11.0,7.0,-100.00,West,260,2.0,8.0,85,0.00,,,0.03,0.000000,,2013-01-21 02:23:00,
2013-01-20 19:33:00,11.0,7.0,-100.00,West,260,2.0,8.0,85,0.00,,,0.03,0.000000,,2013-01-21 02:33:00,
2013-01-20 19:42:00,11.0,7.0,-100.00,West,260,2.0,8.0,85,0.00,,,0.03,0.000000,,2013-01-21 02:42:00,
2013-01-20 19:52:00,11.0,7.0,-100.00,West,260,2.0,8.0,85,0.00,,,0.03,0.000000,,2013-01-21 02:52:00,
2013-01-20 20:23:00,10.0,6.0,-100.00,WNW,287,2.0,5.0,85,0.00,,,0.03,0.000000,,2013-01-21 03:23:00,
2013-01-20 20:33:00,10.0,6.0,-100.00,WNW,287,2.0,5.0,85,0.00,,,0.03,0.000000,,2013-01-21 03:33:00,
2013-01-20 20:43:00,10.0,6.0,-100.00,WNW,287,2.0,5.0,85,0.00,,,0.03,0.000000,,2013-01-21 03:43:00,
2013-01-20 20:52:00,10.0,6.0,-100.00,WNW,287,2.0,5.0,85,0.00,,,0.03,0.000000,,2013-01-21 03:52:00,
2013-01-20 21:23:00,9.0,4.0,-100.00,North,6,4.0,10.0,78,0.00,,,0.03,0.000000,,2013-01-21 04:23:00,
2013-01-20 21:32:00,9.0,4.0,-100.00,North,6,4.0,10.0,78,0.00,,,0.03,0.000000,,2013-01-21 04:32:00,
2013-01-20 21:42:00,9.0,4.0,-100.00,North,6,4.0,10.0,78,0.00,,,0.03,0.000000,,2013-01-21 04:42:00,
2013-01-20 21:52:00,9.0,4.0,-100.00,North,6,4.0,10.0,78,0.00,,,0.03,0.000000,,2013-01-21 04:52:00,
2013-01-20 22:22:00,7.0,3.0,-100.00,North,357,4.0,7.0,85,0.00,,,0.03,0.000000,,2013-01-21 05:22:00,
2013-01-20 22:42:00,7.0,3.0,-100.00,North,357,4.0,7.0,85,0.00,,,0.03,0.000000,,2013-01-21 05:42:00,
2013-01-20 22:52:00,7.0,3.0,-100.00,North,357,4.0,7.0,85,0.00,,,0.03,0.000000,,2013-01-21 05:52:00,
2013-01-20 23:23:00,7.0,3.0,-100.00,NNW,337,4.0,8.0,85,0.00,,,0.03,0.000000,,2013-01-21 06:23:00,
2013-01-20 23:33:00,7.0,3.0,-100.00,NNW,337,4.0,8.0,85,0.00,,,0.03,0.000000,,2013-01-21 06:33:00,
2013-01-20 23:43:00,7.0,3.0,-100.00,NNW,337,4.0,8.0,85,0.00,,,0.03,0.000000,,2013-01-21 06:43:00,
2013-01-20 23:52:00,7.0,3.0,-100.00,NNW,337,4.0,8.0,85,0.00,,,0.03,0.000000,,2013-01-21 06:52:00,